Total_Precipitation_Accumulation
0.01 0.01 0.02 0.02 0.03 0.03 0.04 0.05 0.06 0.06 0.06 0.07 0.09 0.11 0.11 0.11 0.11 0.12 0.12 0.13 0.15 0.16 0.17 0.19 0.22 0.23 0.26 0.29 0.33 0.38 0.43 0.50 0.53 0.43 0.37 0.35 0.35 0.33 0.32 0.29 0.25 0.25 0.24
0.01 0.01 0.02 0.02 0.02 0.03 0.04 0.05 0.05 0.05 0.05 0.06 0.06 0.06 0.06 0.06 0.07 0.08 0.09 0.11 0.12 0.15 0.16 0.18 0.21 0.23 0.27 0.29 0.31 0.32 0.33 0.34 0.38 0.35 0.28 0.23 0.21 0.20 0.19 0.17 0.15 0.15 0.14
0.02 0.03 0.03 0.03 0.03 0.04 0.06 0.06 0.05 0.05 0.05 0.05 0.04 0.04 0.05 0.05 0.06 0.07 0.09 0.11 0.13 0.16 0.19 0.23 0.25 0.26 0.29 0.29 0.28 0.26 0.24 0.23 0.25 0.28 0.21 0.15 0.13 0.11 0.11 0.10 0.09 0.09 0.09
0.03 0.04 0.04 0.05 0.06 0.06 0.06 0.06 0.06 0.05 0.06 0.06 0.05 0.05 0.06 0.08 0.09 0.11 0.13 0.16 0.19 0.21 0.24 0.27 0.29 0.29 0.28 0.25 0.21 0.19 0.19 0.18 0.18 0.20 0.21 0.16 0.13 0.08 0.10 0.10 0.09 0.07 0.07
0.04 0.05 0.06 0.07 0.06 0.07 0.06 0.06 0.06 0.06 0.06 0.07 0.08 0.09 0.11 0.12 0.16 0.19 0.22 0.26 0.29 0.32 0.32 0.30 0.27 0.24 0.20 0.16 0.15 0.15 0.15 0.17 0.23 0.27 0.25 0.19 0.13 0.11 0.10 0.09 0.11 0.09 0.05
0.06 0.07 0.07 0.07 0.07 0.07 0.07 0.08 0.09 0.10 0.10 0.12 0.15 0.19 0.25 0.29 0.36 0.35 0.31 0.31 0.30 0.27 0.24 0.21 0.19 0.17 0.14 0.13 0.13 0.13 0.18 0.26 0.33 0.35 0.29 0.20 0.10 0.06 0.08 0.13 0.18 0.22 0.15
0.06 0.08 0.08 0.08 0.08 0.08 0.10 0.15 0.18 0.20 0.22 0.26 0.30 0.35 0.38 0.40 0.38 0.29 0.24 0.21 0.22 0.21 0.17 0.13 0.10 0.08 0.07 0.05 0.06 0.11 0.16 0.21 0.24 0.23 0.18 0.11 0.10 0.12 0.23 0.33 0.29 0.28 0.17
0.07 0.10 0.12 0.13 0.17 0.20 0.20 0.25 0.31 0.35 0.37 0.40 0.41 0.43 0.42 0.40 0.34 0.25 0.19 0.15 0.13 0.10 0.08 0.06 0.05 0.04 0.04 0.07 0.13 0.18 0.12 0.08 0.07 0.07 0.10 0.13 0.16 0.16 0.23 0.33 0.30 0.22 0.10
0.08 0.11 0.14 0.17 0.24 0.30 0.31 0.34 0.38 0.43 0.46 0.45 0.42 0.38 0.31 0.25 0.20 0.14 0.10 0.07 0.05 0.04 0.03 0.03 0.05 0.05 0.06 0.19 0.27 0.23 0.10 0.03 0.02 0.07 0.12 0.12 0.10 0.09 0.11 0.27 0.38 0.40 0.25
0.18 0.22 0.26 0.31 0.37 0.40 0.39 0.39 0.38 0.36 0.35 0.31 0.26 0.22 0.17 0.13 0.09 0.05 0.04 0.03 0.03 0.02 0.03 0.03 0.03 0.05 0.14 0.26 0.24 0.19 0.10 0.06 0.09 0.06 0.03 0.01 0.01 0.02 0.08 0.23 0.57 0.84 0.58
0.33 0.35 0.35 0.37 0.38 0.38 0.35 0.32 0.28 0.23 0.19 0.14 0.11 0.09 0.06 0.04 0.03 0.02 0.02 0.03 0.05 0.07 0.07 0.03 0.02 0.10 0.21 0.22 0.16 0.08 0.09 0.16 0.12 0.03 0.01 0.01 0.01 0.02 0.04 0.08 0.30 0.83 1.04
0.32 0.32 0.31 0.30 0.27 0.26 0.24 0.19 0.15 0.11 0.08 0.06 0.04 0.02 0.01 0.01 0.00 0.00 0.02 0.06 0.11 0.11 0.07 0.04 0.07 0.16 0.15 0.09 0.04 0.04 0.11 0.10 0.03 0.03 0.03 0.03 0.03 0.04 0.04 0.05 0.10 0.25 0.56
0.24 0.23 0.20 0.16 0.14 0.12 0.10 0.08 0.06 0.05 0.03 0.02 0.01 0.01 0.00 0.00 0.00 0.00 0.02 0.08 0.12 0.10 0.08 0.12 0.14 0.09 0.04 0.01 0.01 0.03 0.04 0.02 0.06 0.12 0.10 0.06 0.04 0.05 0.06 0.08 0.09 0.13 0.21
0.12 0.12 0.09 0.06 0.04 0.03 0.02 0.02 0.01 0.01 0.00 0.00 0.00 0.01 0.01 0.00 0.00 0.01 0.04 0.07 0.08 0.10 0.13 0.13 0.06 0.01 0.00 0.00 0.01 0.00 0.01 0.02 0.11 0.20 0.17 0.09 0.05 0.06 0.09 0.17 0.27 0.30 0.35
0.03 0.03 0.02 0.02 0.01 0.01 0.01 0.00 0.00 0.00 0.00 0.00 0.01 0.01 0.02 0.02 0.02 0.08 0.11 0.10 0.13 0.16 0.14 0.04 0.00 0.00 0.01 0.01 0.00 0.00 0.01 0.02 0.06 0.11 0.18 0.17 0.12 0.11 0.13 0.22 0.40 0.51 0.56
0.00 0.00 0.00 0.00 0.00 0.00 0.00 0.00 0.00 0.00 0.00 0.00 0.01 0.02 0.02 0.03 0.06 0.08 0.10 0.14 0.16 0.12 0.05 0.01 0.01 0.02 0.02 0.02 0.02 0.03 0.02 0.04 0.11 0.20 0.23 0.25 0.27 0.26 0.26 0.28 0.45 0.60 0.61
0.00 0.00 0.00 0.00 0.00 0.00 0.00 0.00 0.00 0.00 0.00 0.00 0.00 0.01 0.02 0.03 0.05 0.06 0.10 0.12 0.07 0.03 0.01 0.03 0.04 0.03 0.03 0.04 0.06 0.08 0.08 0.07 0.16 0.28 0.34 0.36 0.38 0.36 0.38 0.42 0.49 0.54 0.52
0.00 0.00 0.00 0.00 0.00 0.00 0.00 0.00 0.00 0.00 0.00 0.00 0.00 0.00 0.01 0.02 0.03 0.06 0.08 0.05 0.01 0.01 0.03 0.05 0.04 0.04 0.05 0.07 0.10 0.13 0.14 0.13 0.19 0.29 0.35 0.39 0.45 0.49 0.48 0.49 0.52 0.55 0.50
0.00 0.00 0.00 0.00 0.00 0.00 0.00 0.00 0.00 0.00 0.00 0.00 0.00 0.00 0.00 0.01 0.03 0.04 0.03 0.01 0.02 0.04 0.04 0.04 0.03 0.05 0.08 0.11 0.13 0.16 0.21 0.26 0.30 0.40 0.42 0.45 0.51 0.58 0.53 0.47 0.46 0.38 0.31
0.01 0.01 0.01 0.01 0.00 0.00 0.00 0.00 0.01 0.01 0.01 0.01 0.01 0.00 0.00 0.02 0.04 0.01 0.00 0.01 0.04 0.05 0.04 0.04 0.04 0.05 0.11 0.15 0.18 0.21 0.25 0.27 0.33 0.40 0.44 0.49 0.53 0.59 0.56 0.43 0.33 0.28 0.23
0.01 0.01 0.01 0.01 0.01 0.01 0.01 0.01 0.01 0.02 0.02 0.01 0.01 0.01 0.03 0.04 0.02 0.01 0.01 0.02 0.04 0.04 0.05 0.06 0.06 0.08 0.13 0.18 0.21 0.22 0.27 0.31 0.39 0.48 0.51 0.49 0.48 0.44 0.34 0.30 0.27 0.26 0.27
0.02 0.02 0.02 0.02 0.01 0.01 0.02 0.02 0.02 0.02 0.02 0.01 0.01 0.01 0.02 0.01 0.01 0.01 0.02 0.02 0.02 0.02 0.05 0.09 0.10 0.12 0.23 0.34 0.43 0.44 0.35 0.32 0.38 0.48 0.47 0.38 0.33 0.29 0.27 0.27 0.26 0.26 0.27
0.03 0.03 0.03 0.03 0.03 0.03 0.03 0.03 0.02 0.02 0.02 0.02 0.02 0.02 0.01 0.01 0.02 0.02 0.02 0.02 0.02 0.02 0.03 0.07 0.13 0.13 0.18 0.33 0.49 0.71 0.77 0.62 0.55 0.59 0.62 0.49 0.37 0.35 0.36 0.35 0.30 0.28 0.24
0.04 0.04 0.04 0.04 0.04 0.04 0.04 0.03 0.02 0.02 0.02 0.02 0.02 0.02 0.02 0.02 0.02 0.02 0.02 0.02 0.02 0.02 0.03 0.08 0.14 0.17 0.21 0.34 0.47 0.57 0.69 0.79 0.92 0.93 0.88 0.84 0.62 0.46 0.39 0.34 0.28 0.24 0.22
0.05 0.05 0.04 0.05 0.05 0.05 0.05 0.04 0.03 0.03 0.03 0.02 0.02 0.02 0.02 0.02 0.02 0.02 0.02 0.02 0.03 0.03 0.02 0.06 0.14 0.21 0.26 0.34 0.45 0.52 0.55 0.64 0.78 0.84 0.72 0.61 0.49 0.39 0.36 0.32 0.25 0.20 0.18
0.05 0.05 0.05 0.05 0.05 0.05 0.05 0.05 0.05 0.05 0.05 0.05 0.04 0.04 0.04 0.04 0.03 0.03 0.03 0.04 0.04 0.04 0.03 0.04 0.09 0.19 0.28 0.35 0.35 0.40 0.48 0.46 0.38 0.31 0.37 0.42 0.38 0.31 0.29 0.30 0.24 0.19 0.16